Time,TemperatureF,DewpointF,PressureIn,WindDirection,WindDirectionDegrees,WindSpeedMPH,WindSpeedGustMPH,Humidity,HourlyPrecipIn,Conditions,Clouds,dailyrainin,SoftwareType,DateUTC
2013-01-13 00:01:00,27.0,25.0,30.30,NNE,20,0.0,0.0,92,0.00,,,0.00,,2013-01-13 08:01:00,
2013-01-13 00:11:00,27.0,25.0,30.30,NNE,20,0.0,0.0,92,0.00,,,0.00,,2013-01-13 08:11:00,
2013-01-13 00:22:00,27.0,25.0,30.31,NNE,20,0.0,0.0,92,0.00,,,0.00,,2013-01-13 08:22:00,
2013-01-13 00:32:00,27.0,25.0,30.31,NNE,20,0.0,0.0,92,0.00,,,0.00,,2013-01-13 08:32:00,
2013-01-13 00:42:00,27.0,25.0,30.31,NNE,20,0.0,0.0,92,0.00,,,0.00,,2013-01-13 08:42:00,
2013-01-13 00:52:00,27.0,25.0,30.30,NNE,20,0.0,0.0,92,0.00,,,0.00,,2013-01-13 08:52:00,
2013-01-13 01:02:00,27.0,25.0,30.30,NNE,20,0.0,0.0,92,0.00,,,0.00,,2013-01-13 09:02:00,
2013-01-13 01:11:00,27.0,25.0,30.30,ENE,65,0.0,0.0,92,0.00,,,0.00,,2013-01-13 09:11:00,
2013-01-13 01:22:00,27.0,25.0,30.30,ENE,65,0.0,0.0,92,0.00,,,0.00,,2013-01-13 09:22:00,
2013-01-13 01:32:00,27.0,25.0,30.30,ENE,70,0.0,0.0,92,0.00,,,0.00,,2013-01-13 09:32:00,
2013-01-13 01:42:00,27.0,25.0,30.30,ENE,70,0.0,0.0,92,0.00,,,0.00,,2013-01-13 09:42:00,
2013-01-13 01:52:00,27.0,25.0,30.30,ESE,114,0.0,0.0,92,0.00,,,0.00,,2013-01-13 09:52:00,
2013-01-13 02:02:00,27.0,25.0,30.30,ESE,120,0.0,0.0,92,0.00,,,0.00,,2013-01-13 10:02:00,
2013-01-13 02:11:00,27.0,25.0,30.30,ESE,120,0.0,0.0,92,0.00,,,0.00,,2013-01-13 10:11:00,
2013-01-13 02:22:00,27.0,25.0,30.31,ESE,119,0.0,0.0,92,0.00,,,0.00,,2013-01-13 10:22:00,
2013-01-13 02:32:00,26.0,24.0,30.31,ESE,120,0.0,0.0,92,0.00,,,0.00,,2013-01-13 10:32:00,
2013-01-13 02:42:00,26.0,24.0,30.31,ESE,120,0.0,0.0,92,0.00,,,0.00,,2013-01-13 10:42:00,
2013-01-13 02:52:00,26.0,24.0,30.31,ESE,119,0.0,0.0,92,0.00,,,0.00,,2013-01-13 10:52:00,
2013-01-13 03:02:00,26.0,24.0,30.31,ESE,119,0.0,0.0,92,0.00,,,0.00,,2013-01-13 11:02:00,
2013-01-13 03:11:00,26.0,24.0,30.31,ESE,119,0.0,0.0,92,0.00,,,0.00,,2013-01-13 11:11:00,
2013-01-13 03:22:00,26.0,24.0,30.31,ESE,119,0.0,0.0,92,0.00,,,0.00,,2013-01-13 11:22:00,
2013-01-13 03:32:00,26.0,24.0,30.31,ESE,119,0.0,0.0,91,0.00,,,0.00,,2013-01-13 11:32:00,
2013-01-13 03:42:00,26.0,24.0,30.31,ESE,119,0.0,0.0,91,0.00,,,0.00,,2013-01-13 11:42:00,
2013-01-13 03:52:00,26.0,24.0,30.31,ESE,120,0.0,0.0,91,0.00,,,0.00,,2013-01-13 11:52:00,
2013-01-13 04:02:00,26.0,24.0,30.31,ESE,119,0.0,0.0,91,0.00,,,0.00,,2013-01-13 12:02:00,
2013-01-13 04:12:00,26.0,24.0,30.31,ESE,119,0.0,0.0,91,0.00,,,0.00,,2013-01-13 12:12:00,
2013-01-13 04:22:00,26.0,24.0,30.31,ESE,107,0.0,0.0,91,0.00,,,0.00,,2013-01-13 12:22:00,
2013-01-13 04:32:00,26.0,24.0,30.31,ESE,107,0.0,0.0,91,0.00,,,0.00,,2013-01-13 12:32:00,
2013-01-13 04:42:00,26.0,24.0,30.31,ESE,107,0.0,0.0,91,0.00,,,0.00,,2013-01-13 12:42:00,
2013-01-13 04:53:00,26.0,23.0,30.30,East,96,0.0,0.0,90,0.00,,,0.00,,2013-01-13 12:53:00,
2013-01-13 05:02:00,26.0,23.0,30.30,ENE,74,0.0,0.0,90,0.00,,,0.00,,2013-01-13 13:02:00,
2013-01-13 05:12:00,26.0,23.0,30.30,ENE,74,0.0,0.0,90,0.00,,,0.00,,2013-01-13 13:12:00,
2013-01-13 05:22:00,26.0,23.0,30.32,ENE,77,0.0,0.0,90,0.00,,,0.00,,2013-01-13 13:22:00,
2013-01-13 05:32:00,26.0,23.0,30.32,ENE,58,0.0,0.0,90,0.00,,,0.00,,2013-01-13 13:32:00,
2013-01-13 05:42:00,26.0,23.0,30.32,ENE,58,0.0,0.0,90,0.00,,,0.00,,2013-01-13 13:42:00,
2013-01-13 05:53:00,25.0,22.0,30.34,ENE,63,0.0,0.0,89,0.00,,,0.00,,2013-01-13 13:53:00,
2013-01-13 06:02:00,25.0,22.0,30.34,ENE,69,0.0,0.0,89,0.00,,,0.00,,2013-01-13 14:02:00,
2013-01-13 06:12:00,25.0,22.0,30.34,ENE,69,0.0,0.0,89,0.00,,,0.00,,2013-01-13 14:12:00,
2013-01-13 06:22:00,25.0,22.0,30.34,ENE,60,0.0,0.0,89,0.00,,,0.00,,2013-01-13 14:22:00,
2013-01-13 06:32:00,25.0,22.0,30.34,ENE,69,0.0,0.0,88,0.00,,,0.00,,2013-01-13 14:32:00,
2013-01-13 06:42:00,25.0,22.0,30.34,ENE,69,0.0,0.0,88,0.00,,,0.00,,2013-01-13 14:42:00,
2013-01-13 06:53:00,25.0,22.0,30.35,ENE,68,0.0,0.0,88,0.00,,,0.00,,2013-01-13 14:53:00,
2013-01-13 07:02:00,25.0,22.0,30.35,ENE,68,0.0,0.0,87,0.00,,,0.00,,2013-01-13 15:02:00,
2013-01-13 07:12:00,25.0,22.0,30.35,ENE,68,0.0,0.0,87,0.00,,,0.00,,2013-01-13 15:12:00,
2013-01-13 07:22:00,25.0,22.0,30.34,ENE,65,0.0,0.0,87,0.00,,,0.00,,2013-01-13 15:22:00,
2013-01-13 07:33:00,25.0,22.0,30.34,ENE,68,0.0,0.0,87,0.00,,,0.00,,2013-01-13 15:33:00,
2013-01-13 07:42:00,25.0,22.0,30.34,ENE,68,0.0,0.0,87,0.00,,,0.00,,2013-01-13 15:42:00,
2013-01-13 07:53:00,25.0,22.0,30.35,NNE,18,0.0,0.0,87,0.00,,,0.00,,2013-01-13 15:53:00,
2013-01-13 08:02:00,25.0,22.0,30.35,NNE,18,0.0,0.0,87,0.00,,,0.00,,2013-01-13 16:02:00,
2013-01-13 08:12:00,25.0,22.0,30.35,NNE,18,0.0,0.0,87,0.00,,,0.00,,2013-01-13 16:12:00,
2013-01-13 08:22:00,25.0,22.0,30.37,ENE,60,0.0,0.0,87,0.00,,,0.00,,2013-01-13 16:22:00,
2013-01-13 08:33:00,25.0,21.0,30.37,East,84,0.0,0.0,86,0.00,,,0.00,,2013-01-13 16:33:00,
2013-01-13 08:42:00,25.0,21.0,30.37,East,84,0.0,0.0,86,0.00,,,0.00,,2013-01-13 16:42:00,
2013-01-13 08:53:00,25.0,21.0,30.38,East,82,0.0,0.0,86,0.00,,,0.00,,2013-01-13 16:53:00,
2013-01-13 09:02:00,25.0,21.0,30.38,East,82,0.0,0.0,86,0.00,,,0.00,,2013-01-13 17:02:00,
2013-01-13 09:12:00,25.0,21.0,30.38,East,82,0.0,0.0,86,0.00,,,0.00,,2013-01-13 17:12:00,
2013-01-13 09:22:00,25.0,21.0,30.38,East,101,0.0,0.0,85,0.00,,,0.00,,2013-01-13 17:22:00,
2013-01-13 09:32:00,25.0,21.0,30.38,East,94,0.0,0.0,85,0.00,,,0.00,,2013-01-13 17:32:00,
2013-01-13 09:42:00,25.0,21.0,30.38,East,94,0.0,0.0,85,0.00,,,0.00,,2013-01-13 17:42:00,
2013-01-13 09:53:00,25.0,21.0,30.38,ENE,70,0.0,0.0,84,0.00,,,0.00,,2013-01-13 17:53:00,
2013-01-13 10:02:00,25.0,21.0,30.38,ENE,63,0.0,0.0,84,0.00,,,0.00,,2013-01-13 18:02:00,
2013-01-13 10:12:00,25.0,21.0,30.38,ENE,63,0.0,0.0,84,0.00,,,0.00,,2013-01-13 18:12:00,
2013-01-13 10:22:00,25.0,21.0,30.38,SSE,150,0.0,0.0,84,0.00,,,0.00,,2013-01-13 18:22:00,
2013-01-13 10:32:00,26.0,22.0,30.38,SSE,150,0.0,0.0,84,0.00,,,0.00,,2013-01-13 18:32:00,
2013-01-13 10:42:00,26.0,22.0,30.38,SSE,150,0.0,0.0,84,0.00,,,0.00,,2013-01-13 18:42:00,
2013-01-13 10:53:00,26.0,22.0,30.39,WSW,250,0.0,0.0,84,0.00,,,0.00,,2013-01-13 18:53:00,
2013-01-13 11:02:00,26.0,22.0,30.39,WSW,242,0.0,0.0,84,0.00,,,0.00,,2013-01-13 19:02:00,
2013-01-13 11:12:00,26.0,22.0,30.39,WSW,242,0.0,0.0,84,0.00,,,0.00,,2013-01-13 19:12:00,
2013-01-13 11:22:00,26.0,22.0,30.39,NW,309,0.0,0.0,84,0.00,,,0.00,,2013-01-13 19:22:00,
2013-01-13 11:32:00,26.0,22.0,30.39,NNW,343,0.0,0.0,84,0.00,,,0.00,,2013-01-13 19:32:00,
2013-01-13 11:42:00,26.0,22.0,30.39,NNW,343,0.0,0.0,84,0.00,,,0.00,,2013-01-13 19:42:00,
2013-01-13 11:53:00,26.0,22.0,30.38,North,354,0.0,0.0,83,0.00,,,0.00,,2013-01-13 19:53:00,
2013-01-13 12:02:00,26.0,21.0,30.38,NW,311,0.0,0.0,82,0.00,,,0.00,,2013-01-13 20:02:00,
2013-01-13 12:11:00,26.0,21.0,30.38,NW,311,0.0,0.0,82,0.00,,,0.00,,2013-01-13 20:11:00,
2013-01-13 12:22:00,26.0,22.0,30.37,SW,235,0.0,0.0,83,0.00,,,0.00,,2013-01-13 20:22:00,
2013-01-13 12:32:00,27.0,23.0,30.37,SW,235,0.0,0.0,83,0.00,,,0.00,,2013-01-13 20:32:00,
2013-01-13 12:43:00,27.0,23.0,30.37,SW,235,0.0,0.0,83,0.00,,,0.00,,2013-01-13 20:43:00,
2013-01-13 12:53:00,27.0,22.0,30.37,NW,316,0.0,0.0,82,0.00,,,0.00,,2013-01-13 20:53:00,
2013-01-13 13:02:00,27.0,22.0,30.37,NW,316,0.0,0.0,82,0.00,,,0.00,,2013-01-13 21:02:00,
2013-01-13 13:12:00,27.0,22.0,30.37,NW,316,0.0,0.0,82,0.00,,,0.00,,2013-01-13 21:12:00,
2013-01-13 13:22:00,27.0,22.0,30.37,NW,320,0.0,0.0,81,0.00,,,0.00,,2013-01-13 21:22:00,
2013-01-13 13:32:00,28.0,23.0,30.37,North,0,0.0,0.0,81,0.00,,,0.00,,2013-01-13 21:32:00,
2013-01-13 13:42:00,28.0,23.0,30.37,North,0,0.0,0.0,81,0.00,,,0.00,,2013-01-13 21:42:00,
2013-01-13 13:53:00,27.0,22.0,30.35,North,356,0.0,0.0,81,0.00,,,0.00,,2013-01-13 21:53:00,
2013-01-13 14:02:00,28.0,23.0,30.35,North,356,0.0,0.0,81,0.00,,,0.00,,2013-01-13 22:02:00,
2013-01-13 14:12:00,28.0,23.0,30.35,North,356,0.0,0.0,81,0.00,,,0.00,,2013-01-13 22:12:00,
2013-01-13 14:22:00,28.0,23.0,30.36,North,0,0.0,0.0,81,0.00,,,0.00,,2013-01-13 22:22:00,
2013-01-13 14:32:00,28.0,23.0,30.36,NE,53,0.0,0.0,82,0.00,,,0.00,,2013-01-13 22:32:00,
2013-01-13 14:42:00,28.0,23.0,30.36,NE,53,0.0,0.0,82,0.00,,,0.00,,2013-01-13 22:42:00,
2013-01-13 14:52:00,28.0,24.0,30.37,NNW,348,0.0,0.0,83,0.00,,,0.00,,2013-01-13 22:52:00,
2013-01-13 15:02:00,28.0,24.0,30.37,North,0,0.0,0.0,83,0.00,,,0.00,,2013-01-13 23:02:00,
2013-01-13 15:12:00,28.0,24.0,30.37,North,0,0.0,0.0,83,0.00,,,0.00,,2013-01-13 23:12:00,
2013-01-13 15:22:00,28.0,24.0,30.36,North,358,0.0,0.0,84,0.00,,,0.00,,2013-01-13 23:22:00,
2013-01-13 15:32:00,28.0,24.0,30.36,North,358,0.0,0.0,85,0.00,,,0.00,,2013-01-13 23:32:00,
2013-01-13 15:42:00,28.0,24.0,30.36,North,358,0.0,0.0,85,0.00,,,0.00,,2013-01-13 23:42:00,
2013-01-13 15:53:00,27.0,23.0,30.37,NNW,347,0.0,0.0,86,0.00,,,0.00,,2013-01-13 23:53:00,
2013-01-13 16:02:00,27.0,23.0,30.37,North,0,0.0,0.0,86,0.00,,,0.00,,2013-01-14 00:02:00,
2013-01-13 16:12:00,27.0,23.0,30.37,North,0,0.0,0.0,86,0.00,,,0.00,,2013-01-14 00:12:00,
2013-01-13 16:22:00,27.0,23.0,30.37,North,0,0.0,0.0,86,0.00,,,0.00,,2013-01-14 00:22:00,
2013-01-13 16:32:00,28.0,24.0,30.37,North,0,0.0,0.0,86,0.00,,,0.00,,2013-01-14 00:32:00,
2013-01-13 16:42:00,28.0,24.0,30.37,North,0,0.0,0.0,86,0.00,,,0.00,,2013-01-14 00:42:00,
2013-01-13 16:53:00,27.0,23.0,30.37,North,0,0.0,0.0,86,0.00,,,0.00,,2013-01-14 00:53:00,
2013-01-13 17:02:00,27.0,23.0,30.37,North,0,0.0,0.0,86,0.00,,,0.00,,2013-01-14 01:02:00,
2013-01-13 17:12:00,27.0,23.0,30.37,North,0,0.0,0.0,86,0.00,,,0.00,,2013-01-14 01:12:00,
2013-01-13 17:22:00,27.0,23.0,30.36,North,0,0.0,0.0,86,0.00,,,0.00,,2013-01-14 01:22:00,
2013-01-13 17:32:00,27.0,23.0,30.36,SW,215,0.0,0.0,86,0.00,,,0.00,,2013-01-14 01:32:00,
2013-01-13 17:42:00,27.0,23.0,30.36,SW,215,0.0,0.0,86,0.00,,,0.00,,2013-01-14 01:42:00,
2013-01-13 17:52:00,27.0,23.0,30.37,SW,227,0.0,0.0,86,0.00,,,0.00,,2013-01-14 01:52:00,
2013-01-13 18:02:00,27.0,23.0,30.37,SW,227,0.0,0.0,86,0.00,,,0.00,,2013-01-14 02:02:00,
2013-01-13 18:12:00,27.0,23.0,30.37,SW,227,0.0,0.0,86,0.00,,,0.00,,2013-01-14 02:12:00,
2013-01-13 18:22:00,27.0,24.0,30.38,SW,227,0.0,0.0,87,0.00,,,0.00,,2013-01-14 02:22:00,
2013-01-13 18:32:00,27.0,24.0,30.38,SW,227,0.0,0.0,87,0.00,,,0.00,,2013-01-14 02:32:00,
2013-01-13 18:42:00,27.0,24.0,30.38,SW,227,0.0,0.0,87,0.00,,,0.00,,2013-01-14 02:42:00,
2013-01-13 18:53:00,27.0,24.0,30.37,NNE,25,0.0,0.0,87,0.00,,,0.00,,2013-01-14 02:53:00,
2013-01-13 19:02:00,27.0,24.0,30.37,NNE,22,0.0,0.0,87,0.00,,,0.00,,2013-01-14 03:02:00,
2013-01-13 19:12:00,27.0,24.0,30.37,NNE,22,0.0,0.0,87,0.00,,,0.00,,2013-01-14 03:12:00,
2013-01-13 19:22:00,27.0,24.0,30.39,NE,37,0.0,0.0,87,0.00,,,0.00,,2013-01-14 03:22:00,
2013-01-13 19:32:00,27.0,24.0,30.39,NE,37,0.0,0.0,87,0.00,,,0.00,,2013-01-14 03:32:00,
2013-01-13 19:42:00,27.0,24.0,30.39,NE,37,0.0,0.0,87,0.00,,,0.00,,2013-01-14 03:42:00,
2013-01-13 19:53:00,27.0,24.0,30.39,NE,37,0.0,0.0,87,0.00,,,0.00,,2013-01-14 03:53:00,
2013-01-13 20:02:00,27.0,24.0,30.39,ENE,75,0.0,0.0,87,0.00,,,0.00,,2013-01-14 04:02:00,
2013-01-13 20:12:00,27.0,24.0,30.39,ENE,75,0.0,0.0,87,0.00,,,0.00,,2013-01-14 04:12:00,
2013-01-13 20:22:00,27.0,24.0,30.39,ENE,75,0.0,0.0,88,0.00,,,0.00,,2013-01-14 04:22:00,
2013-01-13 20:32:00,27.0,24.0,30.39,North,358,0.0,0.0,88,0.00,,,0.00,,2013-01-14 04:32:00,
2013-01-13 20:42:00,27.0,24.0,30.39,North,358,0.0,0.0,88,0.00,,,0.00,,2013-01-14 04:42:00,
2013-01-13 20:53:00,27.0,24.0,30.37,WSW,248,0.0,0.0,88,0.00,,,0.00,,2013-01-14 04:53:00,
2013-01-13 21:03:00,26.0,23.0,30.37,WSW,248,0.0,0.0,88,0.00,,,0.00,,2013-01-14 05:03:00,
2013-01-13 21:12:00,26.0,23.0,30.37,WSW,248,0.0,0.0,88,0.00,,,0.00,,2013-01-14 05:12:00,
2013-01-13 21:22:00,27.0,24.0,30.38,WSW,248,0.0,0.0,88,0.00,,,0.00,,2013-01-14 05:22:00,
2013-01-13 21:32:00,27.0,24.0,30.38,WSW,248,0.0,0.0,88,0.00,,,0.00,,2013-01-14 05:32:00,
2013-01-13 21:42:00,27.0,24.0,30.38,WSW,248,0.0,0.0,88,0.00,,,0.00,,2013-01-14 05:42:00,
2013-01-13 21:52:00,27.0,24.0,30.38,North,7,0.0,0.0,88,0.00,,,0.00,,2013-01-14 05:52:00,
2013-01-13 22:02:00,27.0,24.0,30.38,North,6,0.0,0.0,88,0.00,,,0.00,,2013-01-14 06:02:00,
2013-01-13 22:11:00,27.0,24.0,30.38,North,6,0.0,0.0,88,0.00,,,0.00,,2013-01-14 06:11:00,
2013-01-13 22:22:00,27.0,24.0,30.39,NNW,339,0.0,0.0,88,0.00,,,0.00,,2013-01-14 06:22:00,
2013-01-13 22:32:00,27.0,24.0,30.39,NNW,339,0.0,0.0,88,0.00,,,0.00,,2013-01-14 06:32:00,
2013-01-13 22:42:00,27.0,24.0,30.39,NNW,339,0.0,0.0,88,0.00,,,0.00,,2013-01-14 06:42:00,
2013-01-13 22:52:00,27.0,24.0,30.38,NNW,339,0.0,0.0,88,0.00,,,0.00,,2013-01-14 06:52:00,
2013-01-13 23:01:00,26.0,23.0,30.38,NNW,339,0.0,0.0,88,0.00,,,0.00,,2013-01-14 07:01:00,
2013-01-13 23:11:00,26.0,23.0,30.38,NNW,339,0.0,0.0,88,0.00,,,0.00,,2013-01-14 07:11:00,
2013-01-13 23:22:00,26.0,23.0,30.39,NNW,339,0.0,0.0,88,0.00,,,0.00,,2013-01-14 07:22:00,
2013-01-13 23:32:00,26.0,23.0,30.39,NNW,339,0.0,0.0,88,0.00,,,0.00,,2013-01-14 07:32:00,
2013-01-13 23:42:00,26.0,23.0,30.39,NNW,339,0.0,0.0,88,0.00,,,0.00,,2013-01-14 07:42:00,
2013-01-13 23:52:00,26.0,23.0,30.40,NW,321,0.0,0.0,89,0.00,,,0.00,,2013-01-14 07:52:00,